Location: Asheville, NC
(35.6000°N, 82.5500°W)
Time: 22:53:06
(UTC-04:00)

Vanguard 2 Rocket - Pass Details

Date: 15 February 2018
Orbit: 554 x 3327 km, 32.9° (Epoch: 20 May)

Event Time Altitude Azimuth Distance (km) Brightness Sun altitude
Rises 00:20:12 0° 237° (WSW) 5,547 - -66.5°
Reaches altitude 10° 00:23:21 10° 234° (SW) 4,852 - -66.6°
Maximum altitude 00:38:27 66° 156° (SSE) 3,256 - -67.0°
Exits shadow 00:53:40 22° 84° (E) 5,309 10.7 -67.0°
Drops below altitude 10° 00:58:34 10° 81° (E) 6,237 11.1 -66.9°
Sets 01:03:15 0° 79° (E) 7,141 11.6 -66.7°
